Location: St. Louis
(38.6270°N, 90.1994°W)
Time: 20:16:28
(UTC-06:00)

Vanguard 3 - Pass Details

Date: 04 December 2021
Orbit: 508 x 3260 km, 33.3° (Epoch: 19 January)

Event Time Altitude Azimuth Distance (km) Brightness Sun altitude
Exits shadow 02:31:20 47° 163° (SSE) 3,940 10.3 -52.2°
Maximum altitude 02:33:19 48° 150° (SSE) 3,899 10.4 -51.8°
Drops below altitude 10° 02:50:13 10° 84° (E) 5,589 11.9 -48.6°
Sets 02:54:13 0° 79° (E) 6,327 12.4 -47.8°
